#timestamp,LO_Frequency,Hit,StdDev 
1549904415.0,286046999.7,N
1549904415.9,286046999.7,N
1549904435.8,286047001.6,N
1549904455.6,286047001.6,N
1549904475.4,286047002.7,N
1549904495.3,286047001.5,N
1549904515.1,286046999.7,N
1549904516.0,286046999.7,N
1549904535.8,286047002.0,N
1549904555.7,286047002.6,N
1549904575.5,286047002.8,N
1549904595.3,286047000.1,N
1549904615.2,286047001.8,N
1549904635.0,286047001.8,N
1549904635.9,286047001.8,N
1549904655.8,286047005.6,N
1549904675.6,286047003.6,N
1549904695.4,286047004.2,N
1549904715.3,286047001.4,N
1549904735.1,286047001.5,N
1549904755.8,286047005.7,N
1549904775.7,286047005.4,N
1549904795.5,286047004.7,N
1549904815.4,286047004.5,N
1549904835.2,286047004.7,N
1549904855.0,286047005.9,N
1549904855.9,286047005.9,N
1549904875.8,286047003.1,N
1549904895.6,286047003.6,N
1549904915.4,286047001.8,N
1549904935.3,286047001.9,N
1549904955.1,286047001.6,N
1549904975.9,286047001.4,N
1549904995.7,286047003.0,N
1549905015.5,286047004.6,N
1549905035.4,286047007.6,Y
1549905055.2,286047004.4,P
1549905075.0,286047001.5,N
1549905075.9,286047001.5,N
1549905095.8,286047001.4,N
1549905115.6,286047001.9,N
1549905135.5,286047002.1,N
1549905155.3,286047003.2,Y
1549905175.1,286047002.4,P
1549905195.9,286047000.1,N
1549905215.7,286047000.4,N
1549905235.5,286047002.3,N
1549905255.4,286046999.8,N
1549905275.2,286047002.8,N
1549905295.1,286046999.7,N
1549905296.0,286046999.7,N
1549905315.8,286046999.9,N
1549905335.6,286047000.0,N
1549905355.5,286047001.5,N
1549905375.3,286047002.4,N
1549905395.1,286047000.4,N
1549905415.9,286047000.2,N
1549905435.7,286047002.6,N
1549905455.6,286047002.4,N
1549905475.4,286047002.4,N
1549905495.2,286047000.9,N
1549905515.1,286047001.2,N
1549905516.0,286047001.2,N
1549905535.8,286046999.9,N
1549905555.6,286047002.7,N
1549905575.5,286047002.8,N
1549905595.3,286047004.1,Y
1549905615.2,286047002.5,P
1549905635.9,286047002.8,P
1549905655.7,286047002.3,P
1549905675.6,286047001.6,N
1549905695.4,286047001.7,N
1549905715.2,286047003.6,Y
1549905735.1,286047000.2,P
1549905736.0,286047000.2,N
1549905755.8,286046999.9,N
1549905775.7,286047000.5,N
1549905795.5,286047000.0,N
1549905815.3,286047000.7,N
1549905835.2,286046998.1,N
1549905855.0,286046998.5,N
1549905855.9,286046998.5,N
1549905875.7,286046999.3,N
1549905895.6,286046996.8,N
1549905915.4,286046996.6,N
1549905935.3,286046998.4,N
1549905955.1,286046998.5,N
1549905956.0,286046998.5,N
1549905975.8,286047000.3,N
1549905995.7,286046999.9,N
1549906015.5,286047000.6,N
1549906035.3,286047000.0,N
1549906055.2,286047000.1,N
1549906075.0,286047002.3,N
1549906075.9,286047002.3,N
1549906095.8,286047002.7,N
1549906115.6,286047000.4,N
1549906135.4,286046999.8,N
1549906155.3,286046999.8,N
1549906175.1,286047000.5,N
1549906195.8,286047000.2,N
1549906215.7,286047002.2,N
1549906235.5,286047001.4,N
1549906255.4,286047002.3,N
1549906275.2,286047002.0,N
1549906295.0,286047002.4,N
1549906295.9,286047002.4,N
1549906315.8,286047002.1,N
1549906335.6,286047002.0,N
1549906355.4,286047001.6,N
1549906375.3,286047002.6,N
1549906395.1,286047002.3,N
1549906415.9,286047001.7,N
1549906435.7,286047004.2,N
1549906455.5,286047001.6,N
1549906475.4,286047004.1,N
1549906495.2,286047003.8,N
1549906515.0,286047004.0,N
1549906515.9,286047004.0,Y
1549906535.8,286047002.7,P
1549906555.6,286047002.7,P
1549906575.5,286047001.6,P
1549906595.3,286047002.7,Y
1549906615.1,286046999.0,P
1549906635.9,286046999.0,N
1549906655.7,286046999.4,N
1549906675.5,286046997.3,N
1549906695.4,286046994.9,Y
1549906715.2,286046996.6,P
1549906735.1,286046997.9,N
1549906736.0,286046997.9,N
1549906755.8,286046996.8,Y
1549906775.6,286046999.0,P
1549906795.5,286046998.4,P
1549906815.3,286046999.5,N
1549906835.1,286046999.2,N
1549906855.9,286046999.6,N
1549906875.7,286046997.2,Y
1549906895.6,286047001.1,P
1549906915.4,286047000.8,N
1549906935.2,286046998.2,N
1549906955.1,286047000.7,N
1549906956.0,286047000.7,N
1549906975.8,286047001.0,N
1549906995.6,286046998.3,N
1549907015.5,286046998.1,N
1549907035.3,286046998.8,N
1549907055.2,286047000.7,N
1549907075.9,286046998.3,N
1549907095.7,286046996.9,N
1549907115.6,286046997.4,N
1549907135.4,286046998.0,N
1549907155.3,286046995.7,Y
1549907175.1,286046995.6,P
1549907176.0,286046995.6,N
1549907195.8,286046997.5,N
1549907215.7,286046998.0,N
1549907235.5,286046995.1,Y
1549907255.3,286047000.5,P
1549907275.2,286046998.2,N
1549907295.0,286047000.3,N
1549907295.9,286047000.3,N
1549907315.8,286047002.7,N
1549907335.6,286047001.8,N
1549907355.4,286047001.5,N
1549907375.3,286047000.2,N
1549907395.1,286047002.7,N
1549907415.8,286047002.7,N
1549907435.7,286047000.6,N
1549907455.5,286047000.4,N
1549907475.4,286047002.4,N
1549907495.2,286047004.0,N
1549907515.0,286047003.6,N
1549907515.9,286047003.6,N
1549907535.8,286047003.5,N
1549907555.6,286047001.3,N
1549907575.4,286047011.9,Y
1549907595.3,286047000.6,P
1549907615.1,286047000.8,N
1549907635.9,286046998.5,P
1549907655.7,286046998.3,N
1549907675.5,286047001.2,N
1549907695.4,286046999.3,N
1549907715.2,286046997.0,N
1549907735.0,286046998.8,N
1549907735.9,286046998.8,N
1549907755.8,286046998.3,N
1549907775.6,286046998.7,N
1549907795.5,286046998.9,N
1549907815.3,286046998.8,N
1549907835.1,286046996.8,N
1549907855.9,286046996.6,N
1549907875.7,286046997.5,N
1549907895.5,286046997.9,N
1549907915.4,286046996.6,N
1549907935.2,286046997.5,N
1549907955.1,286046995.7,Y
1549907956.0,286046995.7,P
1549907975.8,286046997.2,N
1549907995.6,286046997.3,N
